Weather History for Minneapolis Crystal, MN

Change the Weather History Date:

Tuesday, February 25, 2014

  Actual Average Record
Temperature  
Mean Temperature -2 °F -  
Max Temperature 5 °F 29 °F 52 °F (1998)
Min Temperature -8 °F 15 °F -8 °F (2014)
Degree Days  
Heating Degree Days 66    
Moisture  
Dew Point -11 °F    
Average Humidity 63    
Maximum Humidity 76    
Minimum Humidity 52    
Precipitation  
Precipitation 0.00 in - - ()
Sea Level Pressure  
Sea Level Pressure 30.36 in    
Wind  
Wind Speed 12 mph (WNW)    
Max Wind Speed 21 mph    
Max Gust Speed 26 mph    
Visibility 10 miles    
Events      
Averages and records for this station are not official NWS values.
T = Trace of Precipitation, MM = Missing Value Source: NWS Daily Summary

Daily Weather History Graph

Daily Weather History Graph

Search for Another Location

Airport:

Trip Planner

Search our weather history database for the weather conditions in past years. The results will help you decide how hot, cold, wet, or windy it might be!

Date:

Astronomy

Feb. 25, 2014 Rise Set
Actual Time 6:58 AM CST 5:55 PM CST
Civil Twilight 6:28 AM CST 6:25 PM CST
Nautical Twilight 5:54 AM CST 6:59 PM CST
Astronomical Twilight 5:20 AM CST 7:33 PM CST
Moon 4:01 AM CST (2/25) 1:54 PM CST (2/25)
Length of Visible Light 11h 56m
Length of Day
10h 57m
Waning Crescent, 18% of the Moon is Illuminated
Feb 25
Waning Crescent
Mar 1
New
Mar 8
First Quarter
Mar 16
Full
Mar 23
Last Quarter

Hourly Weather History & Observations

Time (CST) Temp. Windchill Dew Point Humidity Pressure Visibility Wind Dir Wind Speed Gust Speed Precip Events Conditions
12:10 AM 3.2 °F -14.6 °F -4.0 °F 72% 30.30 in 10.0 mi WNW 13.8 mph - N/A   Mostly Cloudy
12:17 AM 3.2 °F -15.3 °F -4.0 °F 72% 30.30 in 10.0 mi WNW 15.0 mph - N/A   Scattered Clouds
12:53 AM 1.9 °F -14.7 °F -7.1 °F 66% 30.38 in 10.0 mi NW 11.5 mph - N/A   Clear
1:53 AM -0.9 °F -18.3 °F -9.0 °F 69% 30.39 in 10.0 mi WNW 11.5 mph - N/A   Clear
2:53 AM -2.0 °F -16.6 °F -9.9 °F 69% 30.39 in 10.0 mi West 8.1 mph - N/A   Clear
3:53 AM -4.0 °F -19.0 °F -9.9 °F 76% 30.38 in 10.0 mi West 8.1 mph - N/A   Clear
4:53 AM -5.1 °F -20.4 °F -11.9 °F 72% 30.38 in 10.0 mi WNW 8.1 mph - N/A   Clear
5:53 AM -7.1 °F -19.9 °F -13.0 °F 75% 30.37 in 10.0 mi West 5.8 mph - N/A   Clear
6:53 AM -8.0 °F -21.0 °F -14.1 °F 75% 30.37 in 10.0 mi West 5.8 mph - N/A   Clear
7:53 AM -6.0 °F -22.6 °F -13.0 °F 72% 30.37 in 10.0 mi West 9.2 mph - N/A   Clear
8:53 AM -4.0 °F -19.0 °F -13.0 °F 65% 30.37 in 10.0 mi WNW 8.1 mph - N/A   Clear
9:53 AM -2.0 °F -19.6 °F -11.9 °F 63% 30.36 in 10.0 mi NW 11.5 mph - N/A   Clear
10:53 AM -0.0 °F -14.2 °F -11.0 °F 60% 30.36 in 10.0 mi West 8.1 mph - N/A   Clear
11:53 AM 1.9 °F -12.9 °F -9.9 °F 58% 30.35 in 10.0 mi WNW 9.2 mph - N/A   Clear
12:53 PM 3.0 °F -15.5 °F -9.9 °F 55% 30.34 in 10.0 mi WNW 15.0 mph - N/A   Clear
1:53 PM 3.9 °F -14.3 °F -9.0 °F 55% 30.32 in 10.0 mi WNW 15.0 mph 21.9 mph N/A   Clear
2:53 PM 5.0 °F -15.7 °F -8.0 °F 55% 30.32 in 10.0 mi WNW 20.7 mph - N/A   Clear
3:53 PM 5.0 °F -13.0 °F -9.0 °F 52% 30.32 in 10.0 mi NW 15.0 mph 23.0 mph N/A   Clear
4:53 PM 3.9 °F -16.6 °F -9.0 °F 55% 30.33 in 10.0 mi WNW 19.6 mph 26.5 mph N/A   Clear
5:53 PM 1.9 °F -17.5 °F -11.0 °F 55% 30.35 in 10.0 mi WNW 16.1 mph 21.9 mph N/A   Clear
6:53 PM 1.0 °F -18.0 °F -11.0 °F 57% 30.37 in 10.0 mi WNW 15.0 mph - N/A   Clear
7:53 PM -0.9 °F -20.6 °F -14.1 °F 54% 30.39 in 10.0 mi NW 15.0 mph 24.2 mph N/A   Clear
8:53 PM -2.9 °F -24.4 °F -16.1 °F 54% 30.41 in 10.0 mi WNW 17.3 mph 26.5 mph N/A   Clear
9:53 PM -5.1 °F -27.2 °F -17.0 °F 57% 30.41 in 10.0 mi WNW 17.3 mph 20.7 mph N/A   Clear
10:53 PM -5.1 °F -22.5 °F -18.0 °F 54% 30.41 in 10.0 mi WNW 10.4 mph - N/A   Clear
11:53 PM -7.1 °F -25.9 °F -18.0 °F 59% 30.42 in 10.0 mi WNW 11.5 mph - N/A   Clear